Weather in Girga

Egypt     26°20′12″N   31°53′26″E
temp.,
°C
wind,
m/s
gust,
m/s
humid.,
%
clouds,
%
prec.,
mm/h
press.,
hPa
HPBL,
m
14 april, wed
wed1423:00+20nnw46140 0.0 1016103
02:00+19nw34180 0.0 101556
05:00+17nnw22230 0.0 101520
08:00+22nw34190 0.0 1017366
11:00+30wnw4490 0.0 10151351
14:00+33wnw4590 0.0 10131874
17:00+32nw66102 0.0 10122106
20:00+26nw4101598 0.0 1013174
15 april, thu
thu1523:00+24nw46160 0.0 101484
02:00+21nw34190 0.0 101350
05:00+20nw33210 0.0 101338
08:00+25nw34160 0.0 1014351
11:00+32nw44100 0.0 10131504
14:00+35nw6670 0.0 10102340
17:00+34nw7773 0.0 10102356
20:00+28nnw410100 0.0 1010166
16 april, fri
fri1623:00+25nnw33130 0.0 101134
02:00+23nw441616 0.0 101152
05:00+21nw441974 0.0 101154
08:00+27nnw46130 0.0 1012428
11:00+35nnw5660 0.0 10102115
14:00+38nnw7840 0.0 10083023
17:00+37nnw8850 0.0 10073013
20:00+31n61390 0.0 1009304
17 april, sat
sat1723:00+27nnw48130 0.0 1011157
02:00+24nnw34190 0.0 101046
05:00+22nw34190 0.0 101043
08:00+28nw33130 0.0 1012319
11:00+35nw2290 0.0 10111454
14:00+38ese1270 0.0 10082772
17:00+37se3370 0.0 10071987
20:00+31wsw22100 0.0 100912
18 april, sun
sun1823:00+29ne22110 0.0 101011
02:00+26e11140 0.0 101011
05:00+24se11190 0.0 101111
08:00+31se34140 0.0 1013388
11:00+37ese5690 0.0 10121558
14:00+40ese4580 0.0 10092668
17:00+40e4660 0.0 10083342
20:00+33e4890 0.0 1009130